AirNav   Everest Fuels
 
 1289 users online  

SC60 Cockfield Aerodrome
Scranton, South Carolina, USA

GOING TO SCRANTON?


FAA INFORMATION EFFECTIVE 16 JUNE 2022

Location

FAA Identifier: SC60
Lat/Long: 33-54-14.5850N 079-41-02.2320W
33-54.243083N 079-41.037200W
33.9040514,-79.6839533
(estimated)
Elevation: 82 ft. / 25 m (estimated)
Variation: 06W (1985)
From city: 4 miles SE of SCRANTON, SC
Time zone: UTC -4 (UTC -5 during Standard Time)
Zip code: 29591

Airport Operations

Airport use: Private use. Permission required prior to landing
Activation date: 07/1984
Control tower: no
ARTCC: JACKSONVILLE CENTER
FSS: ANDERSON FLIGHT SERVICE STATION
Attendance: UNATNDD
Wind indicator: yes
Segmented circle: no

Airport Communications

WX AWOS-3 at CKI (14 nm SW): 124.775 (843-382-3000)
WX ASOS at FLO (17 nm N): PHONE 843-665-1306

Airport Services

Runway Information

Runway 4/22

Dimensions: 2800 x 66 ft. / 853 x 20 m
Surface: turf
RUNWAY 4  RUNWAY 22
Traffic pattern: leftleft
Obstructions: trees, 50 ft. from runway
ROAD SOUTH OF RWY.
trees, 50 ft. from runway

Airport Ownership and Management from official FAA records

Ownership: Privately-owned
Owner: MYRTLE P. COCKFIELD
1530 MCKNIGHT RD
SCRANTON, SC 29591-5109
Phone 843-389-2318
Manager: MYRTLE P. COCKFIELD
1530 MCKNIGHT RD
SCRANTON, SC 29591-5109
Phone 843-389-2318

Airport Operational Statistics

Aircraft based on the field: 8
Single engine airplanes: 8
    

Additional Remarks

FOR CD CTC FLORENCE APCH AT 843-669-5194, WHEN APCH CLSD CTC JACKSONVILLE ARTCC AT 904-845-1592.

Instrument Procedures

There are no published instrument procedures at SC60.

Some nearby airports with instrument procedures:

51J - Lake City Municipal Airport-CJ Evans Field (5 nm SW)
KCKI - Williamsburg Regional Airport (14 nm SW)
KFLO - Florence Regional Airport (17 nm N)
KMAO - Marion County Airport (24 nm NE)
KPHH - Robert F Swinnie Airport (28 nm S)
 
Loc | Ops | Rwys | IFR | FBO | Links
Com | Nav | Svcs | Stats | Notes
Area around SC60 (Cockfield Aerodrome)
 
Road maps at: MapQuest Bing Google
 
Aerial photo
WARNING: Photo may not be current or correct
Aerial photo of SC60 (Cockfield Aerodrome)
Do you have a better or more recent aerial photo of Cockfield Aerodrome that you would like to share? If so, please send us your photo.

 
Sectional chart

 
Airport distance calculator
Flying to Cockfield Aerodrome? Find the distance to fly.

From to SC60

Sunrise and sunset
Times for 29-Jun-2022
 Local
(UTC-4)
 Zulu
(UTC)
Morning civil twilight05:4209:42
Sunrise06:1210:12
Sunset20:3300:33
Evening civil twilight21:0201:02

Current date and time
Zulu (UTC)  30-Jun-2022 02:59:41
Local (UTC-4)  29-Jun-2022 22:59:41
 
METAR
KCKI 
14nm SW 
300255Z AUTO 00000KT 10SM CLR 22/21 A3024 RMK AO2
KFLO 
17nm N 
300253Z AUTO 08003KT 10SM CLR 24/22 A3024 RMK AO2 SLP238 T02390222 53009 TSNO
KMAO 
24nm NE 
300235Z AUTO 00000KT 7SM CLR 22/20 A3024 RMK AO2
TAF
KFLO 
17nm N 
292042Z 2921/3018 16005KT P6SM VCSH SCT020 BKN250 FM300100 VRB04KT P6SM SCT120 FM300700 00000KT 5SM BR BKN250 FM301000 00000KT 1SM BR BKN003 FM301300 VRB03KT P6SM BKN003 FM301400 VRB03KT P6SM SCT250
NOTAMs
Click for the latest NOTAMs
NOTAMs are issued by the DoD/FAA and will open in a separate window not controlled by AirNav.

 

 
 

Would you like to see your business listed on this page?

 If your business provides an interesting product or service to pilots, flight crews, aircraft, or users of the Cockfield Aerodrome, you should consider listing it here.  To start the listing process, click on the button below
 
Add a business
 

Other Pages about Cockfield Aerodrome

Update a link
 
Copyright © AirNav, LLC. All rights reserved. Privacy Policy  Contact